Regional Weather Roundup
Issued by NWS

Home | Current Version | Previous Version | Graphics & Text | Print | Product List | Glossary On
Versions: 1 2 3 4 5 6 7 8 9 10 11 12 13 14 15 16 17 18 19 20 21 22 23 24 25 26 27 28 29 30 31 32 33 34 35 36 37 38 39 40 41 42 43 44 45 46 47 48 49 50
000
ASUS45 KBOU 271907
RWRCO

WEATHER ROUNDUP FOR COLORADO
NATIONAL WEATHER SERVICE DENVER/BOULDER CO
100 PM MDT WED JUL 27 2016

NOTE: "FAIR" INDICATES FEW OR NO CLOUDS BELOW 12000 FEET WITH NO
SIGNIFICANT WEATHER AND/OR OBSTRUCTIONS TO VISIBILITY.

COZ001>005-013-030-031-272000-
...NORTHWEST COLORADO...

CITY           SKY/WX    TMP DP  RH WIND       PRES   REMARKS
CRAIG          FAIR      89  29  11 MISG      30.26F
HAYDEN         FAIR      84  32  15 W14       30.29F
MEEKER         FAIR      90  37  15 W17G23    30.27F
MOUNT WERNER   NOT AVBL
STEAMBOAT SPGS FAIR      83  37  19 W3        30.32F
WALDEN         FAIR      79  19  11 SW21G28   30.41F
$$

COZ006>008-011-272000-
...WEST CENTRAL VALLEYS...

CITY           SKY/WX    TMP DP  RH WIND       PRES   REMARKS
GRAND JUNCTION FAIR      92  42  17 SW7       30.16F
MONTROSE       FAIR      89  40  17 N7        30.25F
EAGLE          SUNNY     82  37  20 CALM      30.31F
RIFLE          FAIR      89  39  17 CALM      30.21F
DELTA          NOT AVBL
NUCLA          NOT AVBL
$$

COZ017>023-064>068-272000-
...SOUTHWEST COLORADO...

CITY           SKY/WX    TMP DP  RH WIND       PRES   REMARKS
DURANGO        FAIR      87  40  19 VRB7      30.29F
CORTEZ         FAIR      92  46  20 CALM      30.24F
PAGOSA SPRINGS FAIR      84  26  12 NW5       30.36F
TELLURIDE      PTSUNNY   74  39  27 CALM      30.54F
WOLF CREEK PAS FAIR      61  28  29 N13G24    30.76S
$$

COZ009-010-012-014-032>034-037-058>063-272000-
...CENTRAL COLORADO...

CITY           SKY/WX    TMP DP  RH WIND       PRES   REMARKS
ASPEN          FAIR     N/A N/A N/A MISG      30.38F
BUENA VISTA    FAIR      85  18   8 N10G20    30.37F
COPPER MTN     FAIR      64  18  16 NW13G28   30.75S
BERTHOUD PASS  FAIR      55  41  58 N16G36    30.77S
COTTONWOOD PAS FAIR      81   9   6 W3        30.53F
GUNNISON       FAIR      79  41  25 SW7       30.41F
KREMMLING      FAIR      81  28  15 N3        30.37F
LEADVILLE      FAIR      73  13  10 NW13G25   30.55F
MONARCH PASS     N/A     66  28  24 MISG      30.84F
SALIDA         FAIR      87  25  10 S7        30.41F
SUNLIGHT       FAIR      70  36  28 MISG      30.69F
WILKERSON PASS FAIR      70  19  14 NW3       30.69S
$$

COZ069>075-272000-
...SAN LUIS VALLEY/SANGRE DE CRISTO MOUNTAINS...

CITY           SKY/WX    TMP DP  RH WIND       PRES   REMARKS
ALAMOSA        FAIR      82  41  23 N8        30.37F
LA VETA PASS   FAIR      77  28  16 N5        30.58F
SAGUACHE       FAIR      82  36  18 SW7       30.37F
$$

COZ035-036-038>040-272000-
...NORTHERN COLORADO FRONT RANGE...

CITY           SKY/WX    TMP DP  RH WIND       PRES   REMARKS
DENVER INTL AP FAIR      82  54  37 VRB5      30.20F
DMNS CITY PARK   N/A     83  49  30 N3        30.19F
AURORA         MOSUNNY   83  50  31 NE7       30.22F
FRONT RANGE AP MOSUNNY   84  54  34 NE6       30.22F
ERIE MUNI ARPT FAIR      82  50  32 CALM      30.19F
BOULDER MUN AP FAIR      82  50  32 E5        30.20F
CENTENNIAL     FAIR      82  45  27 VRB3      30.23F
BROOMFIELD     MOSUNNY   82  50  32 VRB6      30.23F
LONGMONT       NOT AVBL
$$

COZ041-046-047-076>085-087-088-272000-
...PIKES PEAK/PALMER DIVIDE AND SOUTHERN FOOTHILLS...

CITY           SKY/WX    TMP DP  RH WIND       PRES   REMARKS
COLO. SPRINGS  FAIR      88  45  22 E16       30.25F
A. F. ACADEMY  MOSUNNY   86  34  15 E6G17     30.26F
SCHRIEVER AFB  NOT AVBL
ELLICOTT       FAIR     N/A N/A N/A NE9G17    30.24F
FALCON         FAIR      85  38  18 E8G16     30.32S
FORT CARSON    FAIR      86  48  26 N8        30.22F
LIMON          FAIR      87  45  23 E7        30.19F
MONUMENT HILL  FAIR      79  37  22 NE6       30.34F
TRINIDAD       NOT AVBL
$$

COZ042>045-048>051-090-091-272000-
...NORTHEAST COLORADO...

CITY           SKY/WX    TMP DP  RH WIND       PRES   REMARKS
GREELEY ARPT   FAIR      84  57  39 NE7       30.17F
AKRON          FAIR      83  62  49 SE7       30.16S
BURLINGTON     FAIR      84  57  39 E10       30.15F
WRAY           NOT AVBL
STERLING       NOT AVBL
HOLYOKE        NOT AVBL
FORT MORGAN    NOT AVBL
$$

COZ086-089-092>099-272000-
...SOUTHEAST COLORADO...

CITY           SKY/WX    TMP DP  RH WIND       PRES   REMARKS
PUEBLO         FAIR      92  47  21 VRB5      30.12F
LA JUNTA       FAIR      88  60  38 VRB6      30.11F
LAMAR          FAIR      87  64  46 VRB3      30.08F
SPRINGFIELD      N/A     90  60  36 S10       30.11F
$$



USA.gov is the U.S. government's official web portal to all federal, state and local government web resources and services.